CFG88L LSGG-EDDF

Flight info

Callsign CFG88L
Flight time 1h 6m
Altitude 30000
Route ARBOS DCT PENDU DCT GIVOR DCT GTQ/N0455F240 DCT ERADI/N0448F230 DCT IDARO DCT OBIGA/N0455F240 DCT RAMOB IMCOM1D
Aircraft A359/H-SDE2E3GHIJ3J4J5LM1ORWXY/LB1D1

Departure

Time 2026-04-14 10:09
Airport Geneva International Airport (LSGG)

Arrival

Time 2026-04-14 11:16
Airport Frankfurt Main Airport (EDDF)
Time Latitude Longitude Altitude Speed Heading
2026-04-14 09:37 46.23382 6.11038 1407 ft 0 kts 135°
2026-04-14 09:57 46.23392 6.11025 1409 ft 3 kts 143°
2026-04-14 09:57 46.23407 6.11008 1406 ft 3 kts 149°
2026-04-14 09:57 46.23424 6.10995 1409 ft 3 kts 154°
2026-04-14 09:58 46.23443 6.10984 1409 ft 3 kts 169°
2026-04-14 09:58 46.23463 6.10983 1409 ft 3 kts 191°
2026-04-14 09:58 46.23482 6.10992 1409 ft 3 kts 213°
2026-04-14 09:58 46.23498 6.11012 1409 ft 3 kts 235°
2026-04-14 09:59 46.23508 6.11037 1409 ft 3 kts 253°
2026-04-14 09:59 46.23513 6.11063 1409 ft 3 kts 246°
2026-04-14 09:59 46.23518 6.11078 1409 ft 1 kts 242°
2026-04-14 09:59 46.23526 6.11095 1409 ft 0 kts 226°
2026-04-14 10:04 46.23523 6.11091 1399 ft 5 kts 226°
2026-04-14 10:05 46.23462 6.11000 1408 ft 17 kts 225°
2026-04-14 10:05 46.23372 6.10867 1407 ft 16 kts 227°
2026-04-14 10:05 46.23352 6.10736 1406 ft 15 kts 262°
2026-04-14 10:05 46.23335 6.10575 1406 ft 18 kts 250°
2026-04-14 10:06 46.23252 6.10427 1407 ft 21 kts 225°
2026-04-14 10:06 46.23146 6.10269 1405 ft 23 kts 229°
2026-04-14 10:06 46.23031 6.10093 1409 ft 25 kts 226°
2026-04-14 10:06 46.22903 6.09905 1409 ft 27 kts 226°
2026-04-14 10:07 46.22776 6.09717 1411 ft 27 kts 226°
2026-04-14 10:07 46.22639 6.09514 1411 ft 29 kts 225°
2026-04-14 10:07 46.22552 6.09302 1416 ft 23 kts 264°
2026-04-14 10:07 46.22564 6.09186 1419 ft 8 kts 295°
2026-04-14 10:08 46.22603 6.09157 1422 ft 5 kts
2026-04-14 10:08 46.22644 6.09190 1425 ft 8 kts 40°
2026-04-14 10:08 46.22656 6.09207 1424 ft 0 kts 44°
2026-04-14 10:08 46.22723 6.09303 1427 ft 45 kts 45°
2026-04-14 10:09 46.23125 6.09884 1417 ft 117 kts 45°
2026-04-14 10:09 46.23820 6.10919 1705 ft 149 kts 46°
2026-04-14 10:09 46.24475 6.11967 2744 ft 138 kts 47°
2026-04-14 10:09 46.25095 6.13017 3390 ft 139 kts 47°
2026-04-14 10:10 46.25833 6.14071 3693 ft 161 kts 43°
2026-04-14 10:10 46.26707 6.15267 4000 ft 185 kts 43°
2026-04-14 10:10 46.27697 6.16663 4299 ft 212 kts 44°
2026-04-14 10:10 46.28792 6.18245 4687 ft 234 kts 44°
2026-04-14 10:11 46.29967 6.19965 5309 ft 244 kts 45°
2026-04-14 10:11 46.31174 6.21733 6030 ft 250 kts 45°
2026-04-14 10:11 46.32405 6.23541 6762 ft 254 kts 45°
2026-04-14 10:11 46.33655 6.25381 7500 ft 259 kts 45°
2026-04-14 10:12 46.34927 6.27257 8220 ft 264 kts 45°
2026-04-14 10:12 46.36347 6.28994 8902 ft 271 kts 32°
2026-04-14 10:12 46.38144 6.29878 9594 ft 279 kts
2026-04-14 10:12 46.40100 6.29915 10273 ft 285 kts 359°
2026-04-14 10:13 46.42135 6.29788 10606 ft 302 kts 358°
2026-04-14 10:13 46.44297 6.29652 10880 ft 319 kts 358°
2026-04-14 10:13 46.46544 6.29526 11150 ft 335 kts 358°
2026-04-14 10:13 46.48857 6.29407 11429 ft 348 kts 358°
2026-04-14 10:14 46.51310 6.29286 11899 ft 355 kts 358°
2026-04-14 10:14 46.53800 6.29167 12403 ft 361 kts 358°
2026-04-14 10:14 46.56326 6.29047 12932 ft 365 kts 358°
2026-04-14 10:14 46.58879 6.28927 13473 ft 369 kts 358°
2026-04-14 10:15 46.61458 6.28806 14010 ft 373 kts 358°
2026-04-14 10:15 46.64070 6.28680 14486 ft 376 kts 357°
2026-04-14 10:15 46.66673 6.28192 14989 ft 378 kts 345°
2026-04-14 10:15 46.69106 6.26748 15526 ft 379 kts 331°
2026-04-14 10:16 46.71413 6.24886 16045 ft 381 kts 329°
2026-04-14 10:16 46.73714 6.22975 16550 ft 384 kts 329°
2026-04-14 10:16 46.76060 6.21037 17090 ft 387 kts 329°
2026-04-14 10:16 46.78413 6.19097 17601 ft 389 kts 329°
2026-04-14 10:17 46.80781 6.17151 18129 ft 392 kts 329°
2026-04-14 10:17 46.83167 6.15193 18607 ft 395 kts 329°
2026-04-14 10:17 46.85575 6.13219 19025 ft 398 kts 329°
2026-04-14 10:17 46.88000 6.11231 19432 ft 401 kts 329°
2026-04-14 10:18 46.92901 6.07194 20292 ft 407 kts 329°
2026-04-14 10:18 46.95386 6.05164 20723 ft 410 kts 330°
2026-04-14 10:18 46.98018 6.03497 21121 ft 415 kts 341°
2026-04-14 10:19 47.00825 6.02714 21547 ft 419 kts 354°
2026-04-14 10:19 47.03747 6.02501 21960 ft 422 kts 358°
2026-04-14 10:19 47.06692 6.02509 22363 ft 425 kts
2026-04-14 10:19 47.09661 6.02616 22777 ft 427 kts
2026-04-14 10:20 47.12635 6.02748 23202 ft 429 kts
2026-04-14 10:20 47.15638 6.02868 23601 ft 431 kts
2026-04-14 10:20 47.18648 6.02964 23955 ft 434 kts
2026-04-14 10:20 47.21670 6.03039 24323 ft 435 kts
2026-04-14 10:21 47.24703 6.03099 24706 ft 436 kts
2026-04-14 10:21 47.27744 6.03151 25084 ft 438 kts 360°
2026-04-14 10:21 47.30799 6.03200 25466 ft 440 kts 360°
2026-04-14 10:21 47.33857 6.03317 25865 ft 441 kts
2026-04-14 10:22 47.36916 6.03865 26299 ft 443 kts
2026-04-14 10:22 47.39976 6.04578 26707 ft 446 kts
2026-04-14 10:22 47.43043 6.05368 27149 ft 448 kts
2026-04-14 10:22 47.46109 6.06197 27615 ft 450 kts 10°
2026-04-14 10:23 47.49189 6.07044 28085 ft 452 kts 10°
2026-04-14 10:23 47.52255 6.07887 28532 ft 455 kts 10°
2026-04-14 10:23 47.55378 6.08742 29010 ft 457 kts
2026-04-14 10:23 47.58516 6.09594 29477 ft 460 kts
2026-04-14 10:24 47.61663 6.10445 29961 ft 463 kts
2026-04-14 10:24 47.64860 6.11308 30165 ft 469 kts
2026-04-14 10:24 47.71407 6.13075 30167 ft 482 kts
2026-04-14 10:25 47.78015 6.14868 30164 ft 483 kts
2026-04-14 10:25 47.84651 6.16674 30166 ft 484 kts
2026-04-14 10:26 47.91281 6.18479 30170 ft 485 kts
2026-04-14 10:26 47.97893 6.20286 30166 ft 486 kts
2026-04-14 10:27 48.04551 6.22111 30176 ft 487 kts
2026-04-14 10:27 48.11223 6.23944 30176 ft 487 kts
2026-04-14 10:28 48.17898 6.25782 30182 ft 488 kts
2026-04-14 10:28 48.24569 6.27624 30187 ft 488 kts
2026-04-14 10:29 48.31245 6.29474 30178 ft 488 kts 10°
2026-04-14 10:29 48.37916 6.31325 30186 ft 488 kts 10°
2026-04-14 10:30 48.44606 6.33188 30178 ft 489 kts 10°
2026-04-14 10:30 48.51308 6.35059 30178 ft 489 kts 10°
2026-04-14 10:31 48.57971 6.36924 30181 ft 490 kts 10°
2026-04-14 10:31 48.64625 6.39202 30187 ft 491 kts 19°
2026-04-14 10:32 48.70719 6.43869 30185 ft 492 kts 31°
2026-04-14 10:32 48.76474 6.49444 30186 ft 492 kts 33°
2026-04-14 10:33 48.82201 6.55191 30182 ft 493 kts 33°
2026-04-14 10:33 48.87919 6.60917 30189 ft 493 kts 33°
2026-04-14 10:34 48.96567 6.69383 30184 ft 493 kts 28°
2026-04-14 10:35 49.02973 6.73023 30184 ft 492 kts 14°
2026-04-14 10:35 49.09656 6.75388 30185 ft 493 kts 12°
2026-04-14 10:36 49.16380 6.77563 30191 ft 494 kts 11°
2026-04-14 10:36 49.23102 6.79742 30178 ft 494 kts 12°
2026-04-14 10:37 49.29833 6.81937 30174 ft 495 kts 12°
2026-04-14 10:37 49.36538 6.84145 30173 ft 496 kts 12°
2026-04-14 10:38 49.43295 6.86384 30172 ft 496 kts 12°
2026-04-14 10:38 49.50058 6.88633 30178 ft 497 kts 12°
2026-04-14 10:39 49.56824 6.90889 30170 ft 498 kts 12°
2026-04-14 10:39 49.63606 6.93157 30166 ft 499 kts 12°
2026-04-14 10:40 49.70379 6.95549 30171 ft 499 kts 17°
2026-04-14 10:40 49.76970 6.99014 30175 ft 500 kts 19°
2026-04-14 10:41 49.82408 7.02064 29970 ft 504 kts 20°
2026-04-14 10:41 49.85733 7.03954 29530 ft 513 kts 20°
2026-04-14 10:41 49.89061 7.05849 28506 ft 504 kts 20°
2026-04-14 10:41 49.93378 7.08366 26168 ft 496 kts 23°
2026-04-14 10:42 49.95470 7.09914 24993 ft 492 kts 29°
2026-04-14 10:42 49.98277 7.12778 24107 ft 478 kts 39°
2026-04-14 10:42 50.00733 7.16258 23847 ft 476 kts 49°
2026-04-14 10:42 50.02790 7.20257 23573 ft 473 kts 58°
2026-04-14 10:43 50.04375 7.24701 23313 ft 468 kts 68°
2026-04-14 10:43 50.05461 7.29459 23046 ft 463 kts 76°
2026-04-14 10:43 50.06284 7.34292 22763 ft 460 kts 79°
2026-04-14 10:43 50.07007 7.39156 22553 ft 462 kts 80°
2026-04-14 10:44 50.07687 7.44012 22296 ft 457 kts 81°
2026-04-14 10:44 50.08354 7.48827 22029 ft 454 kts 81°
2026-04-14 10:44 50.09023 7.53620 21764 ft 452 kts 80°
2026-04-14 10:44 50.09698 7.58383 21391 ft 450 kts 80°
2026-04-14 10:45 50.10317 7.63127 20881 ft 445 kts 84°
2026-04-14 10:45 50.10466 7.67896 20381 ft 437 kts 96°
2026-04-14 10:45 50.09960 7.72504 19858 ft 428 kts 107°
2026-04-14 10:45 50.09086 7.76864 19151 ft 419 kts 111°
2026-04-14 10:46 50.08067 7.81034 18429 ft 417 kts 114°
2026-04-14 10:46 50.06947 7.85240 17585 ft 414 kts 115°
2026-04-14 10:46 50.05841 7.89288 16777 ft 410 kts 115°
2026-04-14 10:46 50.04761 7.93371 15986 ft 407 kts 111°
2026-04-14 10:47 50.04153 7.97666 15213 ft 407 kts 100°
2026-04-14 10:47 50.03941 8.02037 14268 ft 405 kts 91°
2026-04-14 10:47 50.04328 8.06360 13226 ft 404 kts 76°
2026-04-14 10:47 50.05510 8.10294 12197 ft 401 kts 57°
2026-04-14 10:48 50.07218 8.13687 11198 ft 394 kts 51°
2026-04-14 10:48 50.08949 8.16852 10218 ft 372 kts 51°
2026-04-14 10:48 50.10580 8.19847 9180 ft 353 kts 51°
2026-04-14 10:48 50.12122 8.22712 8139 ft 337 kts 51°
2026-04-14 10:49 50.13594 8.25468 7148 ft 324 kts 51°
2026-04-14 10:49 50.15009 8.28121 6166 ft 313 kts 51°
2026-04-14 10:49 50.16365 8.30681 5377 ft 297 kts 51°
2026-04-14 10:49 50.17641 8.33113 4664 ft 281 kts 51°
2026-04-14 10:50 50.18682 8.35554 4255 ft 261 kts 62°
2026-04-14 10:50 50.19297 8.38177 4016 ft 256 kts 78°
2026-04-14 10:50 50.19349 8.40916 3981 ft 258 kts 98°
2026-04-14 10:50 50.18725 8.43545 3996 ft 262 kts 121°
2026-04-14 10:51 50.17462 8.45586 3995 ft 263 kts 145°
2026-04-14 10:51 50.15775 8.46650 3992 ft 264 kts 169°
2026-04-14 10:51 50.13947 8.46585 3989 ft 265 kts 192°
2026-04-14 10:51 50.12275 8.45406 3985 ft 265 kts 218°
2026-04-14 10:52 50.11136 8.43201 3998 ft 262 kts 237°
2026-04-14 10:52 50.10228 8.40749 3984 ft 263 kts 249°
2026-04-14 10:52 50.09694 8.38037 3991 ft 262 kts 255°
2026-04-14 10:52 50.09177 8.35321 3994 ft 262 kts 252°
2026-04-14 10:53 50.08596 8.32628 3994 ft 258 kts 251°
2026-04-14 10:53 50.08005 8.30087 3985 ft 242 kts 250°
2026-04-14 10:53 50.07438 8.27700 3985 ft 227 kts 250°
2026-04-14 10:53 50.06908 8.25469 3979 ft 212 kts 250°
2026-04-14 10:54 50.06409 8.23380 3991 ft 204 kts 250°
2026-04-14 10:54 50.05633 8.21539 4000 ft 206 kts 219°
2026-04-14 10:54 50.04346 8.20665 3995 ft 202 kts 184°
2026-04-14 10:54 50.02950 8.20762 3990 ft 201 kts 170°
2026-04-14 10:55 50.01562 8.21104 3998 ft 202 kts 168°
2026-04-14 10:55 50.00180 8.21475 3990 ft 202 kts 168°
2026-04-14 10:55 49.98805 8.21916 3991 ft 201 kts 162°
2026-04-14 10:55 49.97474 8.22596 3993 ft 201 kts 159°
2026-04-14 10:56 49.96356 8.23799 3995 ft 197 kts 122°
2026-04-14 10:56 49.96087 8.25753 3986 ft 184 kts 77°
2026-04-14 10:56 49.96542 8.27592 3995 ft 183 kts 65°
2026-04-14 10:56 49.97047 8.29395 3910 ft 185 kts 69°
2026-04-14 10:57 49.97486 8.31278 3694 ft 186 kts 70°
2026-04-14 10:57 49.97930 8.33176 3396 ft 188 kts 69°
2026-04-14 10:57 49.98391 8.35088 3120 ft 190 kts 69°
2026-04-14 10:57 49.98845 8.36991 2844 ft 182 kts 69°
2026-04-14 10:58 49.99268 8.38775 2646 ft 169 kts 68°
2026-04-14 10:58 49.99662 8.40422 2399 ft 158 kts 68°
2026-04-14 10:58 50.00032 8.41973 2174 ft 147 kts 68°
2026-04-14 10:58 50.00376 8.43419 1980 ft 138 kts 68°
2026-04-14 10:59 50.00698 8.44769 1786 ft 129 kts 68°
2026-04-14 10:59 50.01007 8.46062 1572 ft 128 kts 67°
2026-04-14 10:59 50.01315 8.47357 1308 ft 128 kts 67°
2026-04-14 10:59 50.01618 8.48666 1061 ft 128 kts 68°
2026-04-14 11:00 50.01917 8.49970 847 ft 128 kts 68°
2026-04-14 11:00 50.02224 8.51267 657 ft 128 kts 68°
2026-04-14 11:00 50.02531 8.52552 503 ft 126 kts 66°
2026-04-14 11:00 50.02853 8.53822 371 ft 127 kts 65°
2026-04-14 11:01 50.03180 8.55036 489 ft 118 kts 63°
2026-04-14 11:01 50.03551 8.56365 1269 ft 154 kts 65°
2026-04-14 11:01 50.04035 8.58060 2199 ft 175 kts 63°
2026-04-14 11:01 50.04515 8.59774 3193 ft 172 kts 69°
2026-04-14 11:02 50.04942 8.61500 4100 ft 174 kts 70°
2026-04-14 11:02 50.05386 8.63313 4503 ft 183 kts 73°
2026-04-14 11:02 50.05589 8.65285 4556 ft 194 kts 87°
2026-04-14 11:02 50.05653 8.67510 4378 ft 214 kts 89°
2026-04-14 11:03 50.05681 8.69874 4148 ft 223 kts 90°
2026-04-14 11:03 50.05688 8.72303 4000 ft 225 kts 90°
2026-04-14 11:03 50.05683 8.74754 3984 ft 226 kts 92°
2026-04-14 11:03 50.05398 8.77142 3988 ft 225 kts 111°
2026-04-14 11:04 50.04543 8.79163 3987 ft 225 kts 137°
2026-04-14 11:04 50.03160 8.80266 3993 ft 227 kts 168°
2026-04-14 11:04 50.01610 8.80009 3990 ft 230 kts 204°
2026-04-14 11:04 50.00227 8.78597 3998 ft 250 kts 216°
2026-04-14 11:05 49.98818 8.76893 3988 ft 261 kts 217°
2026-04-14 11:05 49.97567 8.74872 3992 ft 266 kts 237°
2026-04-14 11:05 49.96833 8.72204 3996 ft 266 kts 252°
2026-04-14 11:05 49.96305 8.69443 3989 ft 267 kts 253°
2026-04-14 11:06 49.95768 8.66686 3991 ft 267 kts 251°
2026-04-14 11:06 49.95207 8.63938 3993 ft 267 kts 251°
2026-04-14 11:06 49.94647 8.61221 3991 ft 267 kts 251°
2026-04-14 11:06 49.94080 8.58478 3996 ft 267 kts 251°
2026-04-14 11:07 49.93480 8.55752 3998 ft 267 kts 249°
2026-04-14 11:07 49.92843 8.53111 3985 ft 253 kts 249°
2026-04-14 11:07 49.92237 8.50629 3986 ft 238 kts 249°
2026-04-14 11:07 49.91668 8.48305 3977 ft 222 kts 248°
2026-04-14 11:08 49.91141 8.46142 3975 ft 207 kts 248°
2026-04-14 11:08 49.90647 8.44109 3977 ft 196 kts 248°
2026-04-14 11:08 49.90169 8.42144 3990 ft 195 kts 249°
2026-04-14 11:08 49.89690 8.40182 3988 ft 194 kts 248°
2026-04-14 11:09 49.89239 8.38206 3984 ft 195 kts 255°
2026-04-14 11:09 49.89185 8.36121 3985 ft 195 kts 282°
2026-04-14 11:09 49.89808 8.34301 4006 ft 192 kts 314°
2026-04-14 11:10 49.91807 8.31553 3993 ft 192 kts 321°
2026-04-14 11:10 49.92831 8.30220 3996 ft 192 kts 321°
2026-04-14 11:10 49.93857 8.28898 3995 ft 191 kts 323°
2026-04-14 11:10 49.95045 8.28030 3975 ft 190 kts 355°
2026-04-14 11:11 49.96242 8.28563 3994 ft 183 kts 42°
2026-04-14 11:11 49.97099 8.30049 3943 ft 185 kts 57°
2026-04-14 11:11 49.97633 8.31861 3697 ft 187 kts 71°
2026-04-14 11:11 49.98062 8.33757 3367 ft 191 kts 69°
2026-04-14 11:12 49.98542 8.35728 3062 ft 191 kts 69°
2026-04-14 11:12 49.98998 8.37633 2768 ft 190 kts 69°
2026-04-14 11:12 49.99451 8.39539 2494 ft 185 kts 68°
2026-04-14 11:12 49.99878 8.41327 2234 ft 167 kts 68°
2026-04-14 11:13 50.00268 8.42967 2014 ft 157 kts 68°
2026-04-14 11:13 50.00638 8.44516 1795 ft 147 kts 68°
2026-04-14 11:13 50.00982 8.45960 1554 ft 136 kts 68°
2026-04-14 11:13 50.01299 8.47291 1335 ft 127 kts 66°
2026-04-14 11:14 50.01606 8.48588 1127 ft 128 kts 67°
2026-04-14 11:14 50.01913 8.49889 896 ft 127 kts 67°
2026-04-14 11:14 50.02218 8.51176 684 ft 125 kts 67°
2026-04-14 11:14 50.02520 8.52442 510 ft 126 kts 66°
2026-04-14 11:15 50.02824 8.53717 372 ft 125 kts 67°
2026-04-14 11:15 50.03111 8.54896 359 ft 102 kts 69°
2026-04-14 11:15 50.03335 8.55811 363 ft 80 kts 68°
2026-04-14 11:15 50.03505 8.56549 369 ft 66 kts 70°
2026-04-14 11:16 50.03603 8.56936 369 ft 25 kts 57°
2026-04-14 11:16 50.03713 8.57102 371 ft 15 kts 42°
2026-04-14 11:16 50.03793 8.57204 372 ft 15 kts 37°
2026-04-14 11:16 50.03879 8.57310 374 ft 17 kts 40°
2026-04-14 11:17 50.03959 8.57446 375 ft 18 kts 56°
2026-04-14 11:17 50.04015 8.57640 371 ft 22 kts 69°
2026-04-14 11:17 50.04075 8.57814 374 ft 9 kts 26°
2026-04-14 11:17 50.04135 8.57805 369 ft 11 kts 345°
2026-04-14 11:18 50.04210 8.57764 370 ft 13 kts 339°
2026-04-14 11:18 50.04302 8.57708 375 ft 15 kts 338°
2026-04-14 11:18 50.04401 8.57642 376 ft 15 kts 333°
2026-04-14 11:18 50.04504 8.57562 376 ft 18 kts 336°
2026-04-14 11:19 50.04628 8.57499 375 ft 16 kts 359°
2026-04-14 11:19 50.04712 8.57533 373 ft 10 kts 27°